www.pogodaiklimat.ru

Погода и климат >> Архив погоды >> Азербайджан >> Геокчай


ПОГОДА в Геокчае

  • Прогноз погоды в Геокчае
  • Монитор погоды в Геокчае

АРХИВ ПОГОДЫ в Геокчае

Время (UTC), дата Ветер
(напр.,м/с)
 
Видим.   Явления Облачность Т
(С)
Тd
(С)
f
(%)
Тe
(С)
Тes
(С)
Комфортность P
(гПа)
Po
(гПа)
Тmin
(С)
Tmax
(С)
R
(мм)
R24
(мм)
S
(см)
15 13.08 ЮЗ 2 20 км 3/0
[Cc]
+30.7 +12.9 34 +32 +32 жарко 1015.0 1004.3
18 13.08 ЮВ 2 20 км ясно +25.4 +13.9 49 +28 +28 жарко 1017.3 1006.4 +32.4
21 13.08 ЮВ 2 20 км ясно +22.9 +14.2 58 +26 +26 жарко 1017.8 1006.7
00 14.08 ЮЗ 1 20 км ясно +20.0 +15.7 76 +24 +24 комфорт 1017.4 1006.2
03 14.08 ЮЗ 1 20 км ясно +21.8 +14.5 63 +25 +26 комфорт 1018.1 1007.0
06 14.08 ЮВ 2 20 км ясно +26.6 +15.2 50 +29 +40 жарко 1018.5 1007.6 +19.7
09 14.08 З 2 20 км 3/3 1000 м
[Cu hum]
+29.5 +15.8 43 +32 +45 душно 1016.8 1006.0
12 14.08 Ю 2 20 км ясно +31.6 +15.3 37 +34 +43 душно 1014.4 1003.7
15 14.08 ЮВ 1 20 км ясно +29.9 +17.1 46 +34 +34 очень
душно
1013.8 1003.1
18 14.08 ЮВ 1 20 км ясно +25.0 +19.1 70 +30 +30 душно 1015.9 1005.0 +31.9
21 14.08 В 1 20 км ясно +23.1 +18.7 76 +29 +29 очень
душно
1015.8 1004.8
00 15.08 Ю 1 20 км ясно +21.2 +18.1 82 +25 +25 комфорт 1015.6 1004.3
03 15.08 Ю 1 20 км 8/0
[Ac As]
+21.3 +17.3 78 +25 +26 комфорт 1015.6 1004.6
06 15.08 Ю 1 20 км 4/4 1000 м
[Cu med, cong]
+27.4 +19.7 63 +33 +41 очень
душно
1015.0 1004.2 +20.8
09 15.08 Ю 4 20 км 3/3 1000 м
[Cu med, cong]
+30.5 +18.3 48 +35 +43 очень
душно
1013.5 1002.8
12 15.08 Ю 2 20 км ясно +31.9 +18.0 44 +36 +46 очень
душно
1011.6 1000.9
15 15.08 Ю 2 20 км 3/0
[Ac trans]
+30.4 +20.2 54 +37 +37 очень
душно
1011.4 1000.7
18 15.08 Ю 4 20 км 9/9 600 м
[Sc]
+26.6 +19.7 66 +32 +32 очень
душно
1013.9 1003.1 +32.3
21 15.08 Ю 1 20 км ясно +23.3 +19.4 79 +30 +30 очень
душно
1014.6 1003.7
00 16.08 С 1 20 км ясно +21.8 +16.2 70 +26 +26 душно 1014.0 1003.0
03 16.08 С 2 20 км ясно +21.3 +12.7 58 +24 +24 комфорт 1013.3 1002.3
06 16.08 ЮЗ 2 20 км ясно +27.9 +10.9 35 +29 +39 жарко 1012.6 1001.8 +20.8
09 16.08 ЮВ 3 20 км ясно +30.4 +12.0 32 +31 +45 жарко 1010.6 999.9
12 16.08 Ю 4 20 км ясно +31.5 +18.1 45 +36 +42 очень
душно
1008.4 997.8
15 16.08 Ю 2 20 км 3/0
[Ci]
+31.0 +19.2 49 +36 +37 очень
душно
1007.5 996.9
18 16.08 ЮВ 1 20 км ясно +25.5 +15.9 55 +29 +29 душно 1010.2 998.4 +32.4
21 16.08 ЮЗ 1 20 км ясно +23.2 +14.2 57 +27 +27 душно 1009.5 998.7
00 17.08 З 3 20 км ясно +20.5 +12.7 61 +23 +23 комфорт 1009.5 998.6
03 17.08 ЮЗ 2 20 км ясно +19.6 +12.1 62 +22 +22 комфорт 1010.3 999.3
06 17.08 Ю 2 20 км ясно +28.3 +15.7 46 +31 +42 душно 1010.3 999.5 +19.4
09 17.08 Ю 2 20 км ясно +32.5 +10.3 26 +32 +49 жарко 1009.1 998.5
12 17.08 Ю 4 20 км ясно +34.5 +6.1 17 +32 +38 жарко 1007.1 996.6
15 17.08 Ю 1 20 км ясно +32.3 +13.7 32 +33 +34 жарко 1007.1 996.5
18 17.08 Ю 1 20 км ясно +25.5 +13.0 46 +27 +27 жарко 1009.5 998.7 +35.2
21 17.08 ЮЗ 1 20 км ясно +22.4 +11.8 51 +25 +25 комфорт 1010.7 999.7
00 18.08 ЮЗ 3 20 км ясно +22.1 +9.8 46 +24 +24 комфорт 1010.6 999.6
03 18.08 ЮЗ 3 20 км ясно +20.3 +10.2 52 +22 +23 комфорт 1011.6 1000.6
06 18.08 З 1 20 км ясно +29.0 +12.9 37 +30 +43 жарко 1011.9 1001.1 +20.0
09 18.08 ЮЗ 2 20 км ясно +33.8 +11.2 25 +33 +50 жарко 1010.7 1000.1
12 18.08 С 1 20 км ясно +36.0 +9.0 19 +34 +45 очень
жарко
1009.2 998.7
15 18.08 ЮЗ 1 20 км ясно +33.7 +12.1 27 +34 +34 очень
жарко
1009.0 998.5
18 18.08 ЮВ 1 20 км ясно +26.9 +10.6 36 +28 +28 жарко 1011.5 1000.7 +36.9
21 18.08 С 2 20 км ясно +16.7 +7.1 53 +17 +17 1014.2 928.7
00 19.08 С 3 20 км ясно +21.5 +9.4 46 +23 +23 комфорт 1012.7 1001.7
03 19.08 С 1 20 км ясно +22.5 +8.4 40 +24 +24 комфорт 1013.8 1002.8
06 19.08 Ю 1 20 км ясно +27.9 +13.4 41 +30 +42 жарко 1015.0 1004.2 +20.9
09 19.08 ЮЗ 3 20 км ясно +33.3 +8.9 22 +32 +46 жарко 1014.5 1003.8
12 19.08 ЮЗ 4 20 км ясно +36.1 +4.0 14 +33 +39 жарко 1013.3 1002.8
15 19.08 Ю 1 20 км ясно +34.4 +10.6 23 +34 +34 очень
жарко
1013.6 1003.0
18 19.08 ЮВ 1 20 км ясно +26.9 +11.8 39 +28 +28 жарко 1015.8 1004.9 +36.9
21 19.08 Ю 1 20 км ясно +24.1 +10.4 42 +25 +25 комфорт 1016.5 1005.5
00 20.08 ЮЗ 2 20 км ясно +22.0 +9.8 46 +24 +24 комфорт 1016.7 1005.6
03 20.08 Ю 4 20 км ясно +23.4 +9.2 40 +25 +25 комфорт 1017.3 1006.2
06 20.08 З 2 20 км ясно +30.2 +14.4 38 +32 +42 жарко 1017.5 1006.7 +21.9
09 20.08 З 3 20 км ясно +36.2 +8.2 18 +34 +48 очень
жарко
1016.0 1005.4
12 20.08 Ю 3 20 км ясно +37.7 +7.1 15 +35 +43 очень
жарко
1014.5 1004.0

 

Местоположение метеостанции Геокчай (Азербайджан): широта 40.65 долгота 47.75 высота над уровнем моря 95 м.

В архиве по умолчанию представлена погода в Геокчае за последнюю неделю. Архивные данные за месяц целиком и за предыдущие месяцы, начиная с января 2011 года, Вы можете получить, выбрав интересующий диапазон дат из раскрывающегося списка и нажав кнопку "Ввод!".


*Определитесь, кто Вы:
робот инопланетянин человек

Внимание! Время в таблицах - всемирное. Для получения местного времени необходимо прибавить поправку, которая равна 4 ч.

Смотрите также архив погоды в соседних городах и на ближайших метеорологических станциях:

Погода в Габале (Азербайджан) (38 км)
Погода в Курдамире (Азербайджан) (50 км)
Погода в Евлахе (Азербайджан) (51 км)
Погода в Барде (Азербайджан) (61 км)
Погода в Шемахе (Азербайджан) (74 км)
Погода в Шеках (Азербайджан) (80 км)
Погода в Ахты (Дагестан, Россия) (91 км)
Погода в Беылагане (Азербайджан) (98 км)
Погода в Маразе (Азербайджан) (101 км)
Погода в Губе (Азербайджан) (103 км)

Пояснения к столбцам:

Ветер - указаны скорость ветра в м/с - средняя за 10 мин, порывы в срок и между сроками (в фигурных скобках) и направление, откуда дует ветер: С - северный, СВ - северо-восточный, В - восточный, ЮВ - юго-восточный, Ю - южный, ЮЗ - юго-западный, З - западный, СЗ - северо-западный.
Видимость - горизонтальная дальность видимости в метрах или километрах. При видимости от 1 до 10 км при отсутствии осадков обычно наблюдается дымка, при ухудшении видимости до 1 км и менее - туман. В сухую погоду видимость может ухудшаться дымом, пылью или мглою.
Явления - указаны атмосферные явления, наблюдавшиеся в срок или в последний час перед сроком; фигурными скобками обозначены явления, наблюдавшиеся между сроками (за 1-3 часа до срока); квадратными скобками обозначены град или гололедные отложения с указанием их диаметра в мм.
Облачность - указаны через наклонную черту общая и нижняя облачность в баллах и высота нижней границы облаков в метрах; квадратными скобками обозначены формы облаков: Ci - перистые, Cs - перисто-слоистые, Cc - перисто-кучевые, Ac - высококучевые, As - высокослоистые, Sc - слоисто-кучевые, Ns - слоисто-дождевые, Cu - кучевые, Cb - кучево-дождевые. Подробнее классификацию облаков см. в Атласе облаков (PDF).
T - Температура воздуха - температура, измеренная на высоте 2 м над землей.
Td - Температура точки росы - температура, при понижении до которой содержащийся в воздухе водяной пар достигнет насыщения.
f - Относительная влажность воздуха - влажноcть воздуха, измеренная на высоте 2 м над землей.
Te - Эффективная температура - температура, которую ощущает одетый по сезону человек в тени. Характеристика душности погоды. При расчете учитывается влияние влажности воздуха и скорости ветра на теплоощущения человека.
Tes - Эффективная температура на солнце - температура, которую ощущает человек, с поправкой на солнечный нагрев. Характеристика знойности погоды. Зависит от высоты солнца над горизонтом, облачности и скорости ветра. Ночью, в пасмурную погоду, а также при ветре 12 м/с и более поправка равна нулю.
P - Атмосферное давление - приведенное к уровню моря атмосферное давление.
Po - Атмосферное давление - измеренное на уровне метеостанции атмосферное давление.
Tmin - Минимальная температура - минимум температуры воздуха на высоте 2 м над землей.
Tmax - Максимальная температура - максимум температуры воздуха на высоте 2 м над землей.
R - Количество осадков - Количество выпавших осадков за период времени, мм. При наведении курсора мыши на число - период времени, за который выпало указанное количество осадков.
R24 - Количество осадков - Количество выпавших осадков за 24 часа, мм.
S - Снежный покров - Высота снежного покрова, см. При наведении курсора мыши на число - состояние снежного покрова и степень покрытия местности в баллах.